Location: Lombard
(41.8800°N, 88.0080°W)
Time: 14:01:18
(UTC-06:00)

Transit 4A - Pass Details

Date: 06 December 2023
Orbit: 870 x 973 km, 66.8° (Epoch: 03 March)

Event Time Altitude Azimuth Distance (km) Brightness Sun altitude
Rises 05:43:50 0° 319° (NW) 3,577 - -14.6°
Reaches altitude 10° 05:46:43 10° 309° (NW) 2,612 - -14.1°
Exits shadow 05:48:48 19° 294° (WNW) 2,024 9.0 -13.8°
Maximum altitude 05:51:44 28° 253° (WSW) 1,627 8.7 -13.2°
Drops below altitude 10° 05:56:38 10° 196° (SSW) 2,542 10.2 -12.4°
Sets 05:59:24 0° 185° (S) 3,464 11.1 -11.9°
